Powrót do katalogu

OPS 2366

TRANSIT 14

AktywnyNawigacjaPO
NORAD 2401·PAYLOAD·🇺🇸 United States

Wystrzelony Aug 18, 1966 z Vandenberg Space Force Base

Loading…

Następne Przeloty (najbliższe 24 godziny)

TLE

ŚwieżeSource: Space-Track

Epoka: Sep 14, 2026, 08:36 UTC

1 02401U 66076A   26257.35848161  .00000081  00000-0  10136-3 0  9993
2 02401  88.8454  55.3414 0033895  48.5129 330.4139 13.53970196963167

Śledź OPS 2366 w czasie rzeczywistym z AllMySat

Download on the App Store